RYR15UW LGSK-LMML

Flight info

Callsign RYR15UW
Flight time 1h 29m
Altitude 38000
Route EVIKO DCT ARA DCT BELIX/N0456F370 DCT VENIM/N0455F380 DCT AGARI DCT KEKOR DCT GUDER DCT LAKOM DCT NEDOX
Aircraft B738/M-SDE2E3FGHIRWXY/LB1

Departure

Time 2026-04-30 17:54
Airport Skiathos Island National Airport (LGSK)

Arrival

Time 2026-04-30 19:23
Airport Malta International Airport (LMML)
Time Latitude Longitude Altitude Speed Heading
2026-04-30 17:39 39.17649 23.50211 34 ft 0 kts 291°
2026-04-30 17:46 39.17645 23.50218 33 ft 3 kts 206°
2026-04-30 17:47 39.17657 23.50225 35 ft 2 kts 198°
2026-04-30 17:49 39.17563 23.50246 34 ft 9 kts 130°
2026-04-30 17:50 39.17252 23.50156 22 ft 17 kts 198°
2026-04-30 17:51 39.17022 23.50066 16 ft 4 kts 272°
2026-04-30 17:52 39.17087 23.50080 18 ft 4 kts 30°
2026-04-30 17:53 39.18875 23.50894 430 ft 176 kts 17°
2026-04-30 17:54 39.21324 23.55271 3354 ft 249 kts 114°
2026-04-30 17:55 39.17266 23.63010 6802 ft 254 kts 142°
2026-04-30 17:56 39.10360 23.63576 9726 ft 267 kts 225°
2026-04-30 17:57 39.07223 23.57054 10903 ft 322 kts 244°
2026-04-30 17:58 39.03967 23.48966 12728 ft 348 kts 244°
2026-04-30 17:59 38.99353 23.37753 15593 ft 361 kts 244°
2026-04-30 18:00 38.94528 23.26147 18156 ft 377 kts 244°
2026-04-30 18:00 38.90767 23.17135 19819 ft 387 kts 244°
2026-04-30 18:01 38.88195 23.10988 20890 ft 393 kts 244°
2026-04-30 18:02 38.84248 23.01575 22396 ft 404 kts 244°
2026-04-30 18:02 38.80217 22.91994 23759 ft 413 kts 243°
2026-04-30 18:03 38.76076 22.82181 24942 ft 419 kts 244°
2026-04-30 18:04 38.71881 22.72274 26052 ft 427 kts 244°
2026-04-30 18:05 38.66143 22.58769 27430 ft 435 kts 244°
2026-04-30 18:06 38.60292 22.45058 28671 ft 444 kts 244°
2026-04-30 18:07 38.54413 22.31351 30420 ft 439 kts 244°
2026-04-30 18:08 38.50017 22.21132 31594 ft 434 kts 244°
2026-04-30 18:09 38.44222 22.07714 32950 ft 430 kts 244°
2026-04-30 18:10 38.38436 21.94371 34170 ft 430 kts 244°
2026-04-30 18:11 38.32627 21.81033 35162 ft 429 kts 244°
2026-04-30 18:11 38.28298 21.71125 35901 ft 428 kts 244°
2026-04-30 18:12 38.24440 21.62321 36531 ft 427 kts 244°
2026-04-30 18:13 38.21544 21.55725 36959 ft 427 kts 244°
2026-04-30 18:13 38.17192 21.45839 37601 ft 426 kts 244°
2026-04-30 18:14 38.14271 21.39335 38008 ft 426 kts 243°
2026-04-30 18:15 38.05007 21.19978 38025 ft 424 kts 243°
2026-04-30 18:16 37.98930 21.07247 38029 ft 422 kts 243°
2026-04-30 18:17 37.95902 21.00916 38036 ft 422 kts 243°
2026-04-30 18:18 37.91323 20.91367 38038 ft 423 kts 243°
2026-04-30 18:18 37.88256 20.84986 38024 ft 424 kts 243°
2026-04-30 18:19 37.85197 20.78636 38018 ft 425 kts 243°
2026-04-30 18:19 37.82114 20.72248 38027 ft 425 kts 243°
2026-04-30 18:20 37.79019 20.65849 38021 ft 426 kts 243°
2026-04-30 18:20 37.75916 20.59443 38031 ft 427 kts 243°
2026-04-30 18:21 37.72833 20.53092 38037 ft 427 kts 243°
2026-04-30 18:21 37.69718 20.46691 38039 ft 427 kts 243°
2026-04-30 18:22 37.66605 20.40303 38045 ft 426 kts 243°
2026-04-30 18:22 37.61951 20.30780 38047 ft 425 kts 243°
2026-04-30 18:23 37.58837 20.24422 38046 ft 424 kts 243°
2026-04-30 18:23 37.55752 20.18134 38047 ft 423 kts 243°
2026-04-30 18:24 37.51101 20.08678 38043 ft 422 kts 243°
2026-04-30 18:25 37.48000 20.02389 38053 ft 421 kts 243°
2026-04-30 18:25 37.43371 19.93022 38050 ft 420 kts 243°
2026-04-30 18:26 37.38724 19.83646 38049 ft 420 kts 244°
2026-04-30 18:27 37.34097 19.74335 38046 ft 420 kts 244°
2026-04-30 18:28 37.29448 19.65007 38051 ft 420 kts 244°
2026-04-30 18:28 37.24789 19.55686 38051 ft 420 kts 244°
2026-04-30 18:29 37.18582 19.43306 38051 ft 420 kts 244°
2026-04-30 18:30 37.12339 19.30899 38054 ft 420 kts 244°
2026-04-30 18:31 37.07672 19.21653 38052 ft 420 kts 244°
2026-04-30 18:32 37.02981 19.12382 38055 ft 419 kts 244°
2026-04-30 18:33 36.98314 19.03186 38051 ft 418 kts 244°
2026-04-30 18:33 36.95692 18.96803 38060 ft 407 kts 255°
2026-04-30 18:33 36.94737 18.93469 38056 ft 407 kts 256°
2026-04-30 18:34 36.91888 18.83467 38053 ft 407 kts 256°
2026-04-30 18:35 36.89981 18.76858 38050 ft 406 kts 255°
2026-04-30 18:35 36.88050 18.70215 38056 ft 406 kts 255°
2026-04-30 18:36 36.85142 18.60263 38051 ft 406 kts 255°
2026-04-30 18:37 36.82245 18.50378 38052 ft 406 kts 255°
2026-04-30 18:37 36.80299 18.43757 38052 ft 406 kts 255°
2026-04-30 18:38 36.78353 18.37149 38054 ft 406 kts 255°
2026-04-30 18:38 36.76403 18.30546 38054 ft 406 kts 255°
2026-04-30 18:39 36.74457 18.23975 38057 ft 406 kts 255°
2026-04-30 18:39 36.72494 18.17359 38051 ft 406 kts 255°
2026-04-30 18:40 36.70530 18.10757 38056 ft 406 kts 255°
2026-04-30 18:40 36.68561 18.04153 38055 ft 406 kts 255°
2026-04-30 18:41 36.66600 17.97588 38055 ft 406 kts 255°
2026-04-30 18:41 36.64623 17.90988 38045 ft 406 kts 255°
2026-04-30 18:42 36.62658 17.84444 38050 ft 406 kts 255°
2026-04-30 18:42 36.59680 17.74549 38053 ft 406 kts 255°
2026-04-30 18:45 36.48764 17.38434 38050 ft 405 kts 256°
2026-04-30 18:46 36.46884 17.31870 38049 ft 405 kts 256°
2026-04-30 18:46 36.44995 17.25255 38048 ft 405 kts 256°
2026-04-30 18:47 36.43098 17.18657 38049 ft 405 kts 256°
2026-04-30 18:47 36.41194 17.12065 38047 ft 405 kts 256°
2026-04-30 18:48 36.39286 17.05478 38048 ft 406 kts 256°
2026-04-30 18:48 36.37385 16.98934 38047 ft 406 kts 256°
2026-04-30 18:49 36.35466 16.92341 38051 ft 406 kts 256°
2026-04-30 18:49 36.33542 16.85750 38046 ft 406 kts 255°
2026-04-30 18:50 36.31611 16.79148 38048 ft 406 kts 255°
2026-04-30 18:50 36.29689 16.72591 38045 ft 406 kts 255°
2026-04-30 18:51 36.27753 16.66008 38044 ft 407 kts 255°
2026-04-30 18:51 36.25806 16.59397 38046 ft 407 kts 255°
2026-04-30 18:52 36.23870 16.52842 38047 ft 407 kts 255°
2026-04-30 18:52 36.21919 16.46245 38041 ft 407 kts 255°
2026-04-30 18:53 36.19976 16.39693 38045 ft 408 kts 255°
2026-04-30 18:53 36.18012 16.33088 38043 ft 408 kts 255°
2026-04-30 18:54 36.16043 16.26482 38045 ft 408 kts 255°
2026-04-30 18:54 36.14087 16.19938 38042 ft 408 kts 255°
2026-04-30 18:55 36.12112 16.13339 38038 ft 408 kts 255°
2026-04-30 18:55 36.09142 16.03449 38046 ft 408 kts 255°
2026-04-30 18:56 36.06177 15.93612 37993 ft 409 kts 255°
2026-04-30 18:56 36.05171 15.90273 37457 ft 414 kts 254°
2026-04-30 18:57 36.03169 15.83662 36266 ft 410 kts 254°
2026-04-30 18:57 36.02167 15.80355 35593 ft 410 kts 254°
2026-04-30 18:57 36.01165 15.77051 34915 ft 411 kts 254°
2026-04-30 18:58 35.99151 15.70414 33454 ft 413 kts 254°
2026-04-30 18:58 35.98153 15.67129 32687 ft 414 kts 254°
2026-04-30 18:58 35.97132 15.63783 31918 ft 415 kts 254°
2026-04-30 18:59 35.95584 15.58193 30801 ft 411 kts 257°
2026-04-30 19:00 35.92948 15.47099 28878 ft 397 kts 258°
2026-04-30 19:00 35.92426 15.44898 28509 ft 394 kts 258°
2026-04-30 19:00 35.90899 15.38528 27439 ft 386 kts 258°
2026-04-30 19:01 35.89375 15.32231 26388 ft 379 kts 258°
2026-04-30 19:01 35.88622 15.29127 25876 ft 376 kts 257°
2026-04-30 19:02 35.87125 15.22966 24859 ft 373 kts 257°
2026-04-30 19:02 35.85621 15.16782 23821 ft 385 kts 257°
2026-04-30 19:03 35.84076 15.10457 22639 ft 382 kts 257°
2026-04-30 19:03 35.82559 15.04281 21561 ft 375 kts 257°
2026-04-30 19:04 35.81065 14.98195 20529 ft 367 kts 257°
2026-04-30 19:04 35.79596 14.92221 19535 ft 361 kts 256°
2026-04-30 19:05 35.78174 14.86321 18548 ft 355 kts 262°
2026-04-30 19:05 35.78749 14.80528 17393 ft 346 kts 293°
2026-04-30 19:06 35.81606 14.75822 16346 ft 342 kts 313°
2026-04-30 19:06 35.83294 14.73762 15848 ft 340 kts 314°
2026-04-30 19:06 35.86657 14.69729 14902 ft 334 kts 314°
2026-04-30 19:07 35.89951 14.65724 13981 ft 329 kts 314°
2026-04-30 19:07 35.91571 14.63736 13479 ft 327 kts 314°
2026-04-30 19:08 35.94749 14.59818 12524 ft 322 kts 314°
2026-04-30 19:08 35.97887 14.55940 11677 ft 316 kts 314°
2026-04-30 19:08 35.99434 14.54024 11222 ft 314 kts 314°
2026-04-30 19:09 36.02454 14.50285 10685 ft 300 kts 314°
2026-04-30 19:09 36.03901 14.48490 10547 ft 290 kts 314°
2026-04-30 19:09 36.05305 14.46748 10411 ft 281 kts 314°
2026-04-30 19:10 36.07969 14.43427 10176 ft 262 kts 310°
2026-04-30 19:10 36.08993 14.39361 9825 ft 254 kts 264°
2026-04-30 19:11 36.08523 14.37299 9586 ft 255 kts 246°
2026-04-30 19:11 36.06202 14.33963 9033 ft 257 kts 227°
2026-04-30 19:11 36.04912 14.32432 8755 ft 257 kts 227°
2026-04-30 19:12 36.03628 14.30896 8474 ft 256 kts 227°
2026-04-30 19:12 36.02355 14.29362 8211 ft 255 kts 227°
2026-04-30 19:12 36.01087 14.27825 7928 ft 255 kts 227°
2026-04-30 19:13 35.98576 14.24769 7483 ft 251 kts 226°
2026-04-30 19:13 35.95936 14.21845 7087 ft 263 kts 224°
2026-04-30 19:13 35.94546 14.20336 6882 ft 268 kts 223°
2026-04-30 19:14 35.93147 14.18815 6664 ft 265 kts 223°
2026-04-30 19:14 35.91772 14.17317 6487 ft 260 kts 223°
2026-04-30 19:14 35.90429 14.15851 6301 ft 255 kts 223°
2026-04-30 19:14 35.89117 14.14399 6140 ft 250 kts 225°
2026-04-30 19:15 35.87894 14.12941 6027 ft 245 kts 226°
2026-04-30 19:15 35.85233 14.10211 5453 ft 255 kts 201°
2026-04-30 19:15 35.83473 14.09958 5164 ft 257 kts 171°
2026-04-30 19:16 35.81825 14.10770 4884 ft 257 kts 143°
2026-04-30 19:16 35.80505 14.12248 4614 ft 255 kts 132°
2026-04-30 19:16 35.78168 14.15412 4259 ft 246 kts 131°
2026-04-30 19:17 35.77016 14.16955 4073 ft 242 kts 131°
2026-04-30 19:17 35.74734 14.19962 3730 ft 239 kts 131°
2026-04-30 19:17 35.73610 14.21434 3562 ft 238 kts 131°
2026-04-30 19:18 35.72683 14.24511 3279 ft 240 kts 79°
2026-04-30 19:18 35.73589 14.26972 3104 ft 236 kts 54°
2026-04-30 19:18 35.74529 14.28568 2999 ft 222 kts 52°
2026-04-30 19:19 35.75407 14.30028 2982 ft 202 kts 52°
2026-04-30 19:19 35.76190 14.31344 2982 ft 179 kts 52°
2026-04-30 19:19 35.77622 14.33630 2503 ft 163 kts 52°
2026-04-30 19:20 35.78286 14.34723 2279 ft 153 kts 51°
2026-04-30 19:20 35.78894 14.35785 2208 ft 152 kts 54°
2026-04-30 19:20 35.80092 14.37995 1785 ft 155 kts 54°
2026-04-30 19:21 35.80693 14.39030 1805 ft 146 kts 53°
2026-04-30 19:21 35.81929 14.41167 1429 ft 152 kts 55°
2026-04-30 19:22 35.83170 14.43296 938 ft 160 kts 52°
2026-04-30 19:22 35.85079 14.46583 296 ft 142 kts 52°
2026-04-30 19:23 35.85678 14.47610 267 ft 10 kts 55°
2026-04-30 19:24 35.85738 14.47761 264 ft 11 kts 111°
2026-04-30 19:24 35.85684 14.47833 263 ft 12 kts 134°
2026-04-30 19:24 35.85640 14.47903 263 ft 3 kts 68°
2026-04-30 19:25 35.85646 14.48200 260 ft 12 kts 133°
2026-04-30 19:26 35.85569 14.48277 260 ft 3 kts 49°
2026-04-30 19:26 35.85606 14.48288 260 ft 0 kts